Weather History for KAEX - April, 2013

Change the Weather History Date:

Saturday, April 20, 2013

  Actual Average Record
Temperature  
Mean Temperature 54 °F 67 °F  
Max Temperature 71 °F 79 °F 94 °F (1987)
Min Temperature 37 °F 56 °F 36 °F (1893)
Degree Days  
Heating Degree Days 11 1  
Month to date heating degree days 85 58  
Since 1 July heating degree days 1824 1938  
Cooling Degree Days 0 4  
Month to date cooling degree days 60 58  
Year to date cooling degree days 94 111  
Growing Degree Days 4 (Base 50)    
Moisture  
Dew Point 39 °F    
Average Humidity 66    
Maximum Humidity 100    
Minimum Humidity 31    
Precipitation  
Precipitation 0.00 in 0.15 in 2.05 in (1947)
Month to date precipitation 2.74 3.34  
Year to date precipitation 20.58 18.07  
Snow  
Snow 0.00 in - 0.00 in ()
Month to date snowfall 0.0  
Since 1 July snowfall 0.0  
Snow Depth 0.00 in    
Sea Level Pressure  
Sea Level Pressure 30.21 in    
Wind  
Wind Speed 3 mph (East)    
Max Wind Speed 14 mph    
Max Gust Speed 18 mph    
Visibility 10 miles    
Events      
T = Trace of Precipitation, MM = Missing Value Source: NWS Daily Summary

Daily Weather History Graph

Daily Weather History Graph

Search for Another Location

Airport or City:

Trip Planner

Search our weather history database for the weather conditions in past years. The results will help you decide how hot, cold, wet, or windy it might be!

Date:

Astronomy

Apr. 20, 2013 Rise Set
Actual Time 6:36 AM CDT 7:42 PM CDT
Civil Twilight 6:11 AM CDT 8:07 PM CDT
Nautical Twilight 5:41 AM CDT 8:37 PM CDT
Astronomical Twilight 5:10 AM CDT 9:08 PM CDT
Moon 2:45 PM CDT (4/20) 3:05 AM CDT (4/20)
Length of Visible Light 13h 56m
Length of Day
13h 06m
Waxing Gibbous, 71% of the Moon is Illuminated
Apr 20
Waxing Gibbous
Apr 25
Full
May 2
Last Quarter
May 9
New
May 17
First Quarter

Hourly Weather History & Observations

Time (CDT) Temp. Dew Point Humidity Pressure Visibility Wind Dir Wind Speed Gust Speed Precip Events Conditions
12:53 AM 45.0 °F 39.9 °F 82% 30.23 in 10.0 mi Calm Calm - N/A   Clear
1:53 AM 43.0 °F 39.9 °F 89% 30.23 in 10.0 mi Calm Calm - N/A   Clear
2:53 AM 42.1 °F 39.9 °F 92% 30.22 in 10.0 mi Calm Calm - N/A   Clear
3:53 AM 39.9 °F 39.0 °F 97% 30.22 in 10.0 mi Calm Calm - N/A   Clear
4:53 AM 39.0 °F 37.9 °F 96% 30.22 in 6.0 mi Calm Calm - N/A   Clear
5:53 AM 39.9 °F 37.9 °F 93% 30.23 in 7.0 mi Calm Calm - N/A   Clear
6:53 AM 37.9 °F 37.0 °F 97% 30.24 in 5.0 mi Calm Calm - N/A   Clear
7:53 AM 44.1 °F 43.0 °F 96% 30.26 in 10.0 mi Calm Calm - N/A   Clear
8:53 AM 51.1 °F 44.1 °F 77% 30.27 in 10.0 mi Calm Calm - N/A   Clear
9:53 AM 59.0 °F 36.0 °F 42% 30.27 in 10.0 mi ENE 4.6 mph - N/A   Clear
10:53 AM 63.0 °F 34.0 °F 34% 30.27 in 10.0 mi East 6.9 mph - N/A   Clear
11:53 AM 64.0 °F 33.1 °F 31% 30.27 in 10.0 mi East 10.4 mph 16.1 mph N/A   Clear
12:53 PM 66.9 °F 35.1 °F 31% 30.24 in 10.0 mi East 10.4 mph - N/A   Clear
1:53 PM 66.9 °F 35.1 °F 31% 30.21 in 10.0 mi Variable 4.6 mph - N/A   Clear
2:53 PM 68.0 °F 37.0 °F 32% 30.19 in 10.0 mi Variable 4.6 mph - N/A   Clear
3:53 PM 70.0 °F 37.0 °F 30% 30.16 in 10.0 mi South 5.8 mph - N/A   Clear
4:53 PM 70.0 °F 37.0 °F 30% 30.14 in 10.0 mi Calm Calm - N/A   Clear
5:53 PM 69.1 °F 37.9 °F 32% 30.12 in 10.0 mi Variable 4.6 mph - N/A   Clear
6:53 PM 66.0 °F 39.9 °F 38% 30.13 in 10.0 mi ESE 9.2 mph - N/A   Clear
7:53 PM 61.0 °F 43.0 °F 52% 30.14 in 10.0 mi Calm Calm - N/A   Clear
8:53 PM 55.9 °F 45.0 °F 67% 30.16 in 10.0 mi Calm Calm - N/A   Clear
9:53 PM 54.0 °F 46.0 °F 75% 30.18 in 10.0 mi Calm Calm - N/A   Clear
10:53 PM 52.0 °F 46.0 °F 80% 30.19 in 10.0 mi NNE 3.5 mph - N/A   Clear
11:53 PM 52.0 °F 45.0 °F 77% 30.19 in 10.0 mi Calm Calm - N/A   Clear